Powrót do katalogu

STARLINK-37919

AktywnyŁącznośćVLEO
NORAD 69957·PAYLOAD·🇺🇸 United States

Wystrzelony Jul 9, 2026 z Cape Canaveral Space Force Station

Loading…

Następne Przeloty (najbliższe 24 godziny)

TLE

ŚwieżeSource: CelesTrak SupGP

Epoka: Sep 14, 2026, 22:36 UTC

1 69957C 26157Q   26257.94215278 -.00006593  00000+0 -19478-3 0  2570
2 69957  53.1586 359.9877 0001236  81.1627 354.5648 15.34398105    16

Śledź STARLINK-37919 w czasie rzeczywistym z AllMySat

Download on the App Store